Retour au catalogue

STARLINK-5197

ActifCommunicationsVLEO
NORAD 54097·PAYLOAD·🇺🇸 United States

Lancé Oct 20, 2022 depuis Cape Canaveral Space Force Station

Loading…

Prochains Passages (prochaines 24 heures)

TLE

FraisSource: CelesTrak SupGP

Époque: Sep 15, 2026, 02:03 UTC

1 54097C 22136AY  26258.08590278 -.00032045  00000+0 -20099-2 0  2586
2 54097  53.1590 178.1914 0001866  79.1005  86.3406 15.08843945    19

Suivez STARLINK-5197 en temps réel avec AllMySat

Download on the App Store